TimePDT,TemperatureF,Dew PointF,Humidity,Sea Level PressureIn,VisibilityMPH,Wind Direction,Wind SpeedMPH,Gust SpeedMPH,PrecipitationIn,Events,Conditions,WindDirDegrees,DateUTC
12:53 AM,64.9,57.9,78,30.15,10.0,North,3.5,-,N/A,,Clear,350,2013-06-28 07:53:00
1:53 AM,64.0,59.0,84,30.15,10.0,Calm,Calm,-,N/A,,Clear,0,2013-06-28 08:53:00
2:53 AM,62.1,59.0,90,30.15,10.0,Calm,Calm,-,N/A,,Clear,0,2013-06-28 09:53:00
3:53 AM,61.0,57.9,90,30.15,10.0,Calm,Calm,-,N/A,,Partly Cloudy,0,2013-06-28 10:53:00
4:53 AM,59.0,57.0,93,30.16,10.0,NW,4.6,-,N/A,,Clear,320,2013-06-28 11:53:00
5:53 AM,60.1,57.9,93,30.17,10.0,NW,3.5,-,N/A,,Clear,320,2013-06-28 12:53:00
6:53 AM,66.0,60.1,81,30.17,10.0,NNW,5.8,-,N/A,,Clear,330,2013-06-28 13:53:00
7:53 AM,70.0,60.1,71,30.17,10.0,NNW,5.8,-,N/A,,Clear,330,2013-06-28 14:53:00
8:53 AM,75.0,61.0,62,30.17,10.0,NNW,5.8,-,N/A,,Clear,330,2013-06-28 15:53:00
9:53 AM,78.1,61.0,56,30.15,10.0,Variable,3.5,-,N/A,,Clear,0,2013-06-28 16:53:00
10:53 AM,82.0,62.1,51,30.13,10.0,NNW,6.9,-,N/A,,Clear,330,2013-06-28 17:53:00
11:53 AM,84.9,62.1,46,30.12,10.0,WNW,5.8,-,N/A,,Clear,300,2013-06-28 18:53:00
12:53 PM,89.1,62.1,40,30.09,10.0,NNW,10.4,16.1,N/A,,Clear,340,2013-06-28 19:53:00
1:53 PM,91.9,61.0,35,30.06,10.0,NNW,11.5,-,N/A,,Clear,330,2013-06-28 20:53:00
2:53 PM,93.0,61.0,34,30.04,10.0,NNW,6.9,-,N/A,,Clear,340,2013-06-28 21:53:00
3:53 PM,93.9,60.1,32,30.01,10.0,NNW,4.6,-,N/A,,Clear,330,2013-06-28 22:53:00
4:53 PM,95.0,59.0,30,29.99,10.0,North,6.9,-,N/A,,Clear,350,2013-06-28 23:53:00
5:53 PM,95.0,60.1,31,29.98,10.0,North,10.4,-,N/A,,Clear,350,2013-06-29 00:53:00
6:53 PM,93.9,60.1,32,29.96,10.0,North,9.2,-,N/A,,Clear,350,2013-06-29 01:53:00
7:53 PM,91.0,64.0,41,29.95,10.0,North,9.2,-,N/A,,Clear,350,2013-06-29 02:53:00
8:53 PM,80.1,66.0,62,29.95,10.0,NNW,6.9,-,N/A,,Clear,340,2013-06-29 03:53:00
9:53 PM,75.0,64.0,69,29.96,10.0,NNW,3.5,-,N/A,,Clear,340,2013-06-29 04:53:00
10:53 PM,75.0,63.0,66,29.96,10.0,WNW,4.6,-,N/A,,Clear,300,2013-06-29 05:53:00
11:53 PM,75.9,61.0,60,29.97,10.0,NW,6.9,-,N/A,,Clear,310,2013-06-29 06:53:00